Location: Andrest
(43.3200°N, 0.0641°E)
Time: 15:17:33
(UTC+00:00)

Cosmos 1328 Rocket - Pass Details

Date: 01 December 2020
Orbit: 601 x 627 km, 82.5° (Epoch: 22 January)

Event Time Altitude Azimuth Distance (km) Brightness Sun altitude
Rises 17:32:47 0° 188° (S) 2,841 7.4 -12.0°
Reaches altitude 10° 17:34:59 10° 190° (S) 1,945 6.5 -12.4°
Maximum altitude 17:39:17 83° 278° (W) 618 3.6 -13.2°
Drops below altitude 10° 17:43:40 10° 7° (N) 1,975 5.9 -13.9°
Sets 17:45:54 0° 8° (N) 2,888 6.7 -14.3°
